Satellite-Ground Cal/Val Site Overpasses Predictions

Prediction of Satellite NPP Overpassing Cal/Val Site: Antarctic Dome C

Ground Cal/Val Site Location: Latitude: -75.10, Longitude: 123.35; Satellite-Ground Site NADIR distance within 100 km.

Table of predicted overpasses for the next 14.0 days since TLE Epoch: 3/18/2022
Interval Starting Time Ending Time Minimum Distance Time Minimum Distance (km)
1 03/19/2022 07:19:12 03/19/2022 07:19:32 03/19/2022 07:19:22 73.94
2 03/21/2022 15:01:27 03/21/2022 15:01:51 03/21/2022 15:01:39 57.90
3 03/22/2022 14:42:37 03/22/2022 14:43:02 03/22/2022 14:42:50 51.32
4 03/23/2022 07:44:17 03/23/2022 07:44:38 03/23/2022 07:44:28 71.38
5 03/24/2022 07:25:25 03/24/2022 07:25:52 03/24/2022 07:25:39 36.61
6 03/26/2022 15:07:51 03/26/2022 15:07:59 03/26/2022 15:07:55 95.66
7 03/27/2022 14:48:50 03/27/2022 14:49:19 03/27/2022 14:49:05 15.63
8 03/29/2022 07:31:40 03/29/2022 07:32:10 03/29/2022 07:31:55 0.16
